Weather History for Polokwane, South Africa

Change the Weather History Date:

Wednesday, March 27, 2013

  Actual Average Record
Temperature  
Mean Temperature 65 °F -  
Max Temperature 77 °F - - ()
Min Temperature 53 °F - - ()
Growing Degree Days 15 (Base 50)    
Moisture  
Dew Point 48 °F    
Average Humidity 60    
Maximum Humidity 88    
Minimum Humidity 31    
Precipitation  
Precipitation 0.00 in - - ()
Sea Level Pressure  
Sea Level Pressure 30.22 in    
Wind  
Wind Speed 5 mph ()    
Max Wind Speed 12 mph    
Max Gust Speed 21 mph    
Visibility 6.2 miles    
Events      
T = Trace of Precipitation, MM = Missing Value Source: Averaged Metar Reports

Daily Weather History Graph

Daily Weather History Graph

Search for Another Location

Airport:

Trip Planner

Search our weather history database for the weather conditions in past years. The results will help you decide how hot, cold, wet, or windy it might be!

Date:

Astronomy

Mar. 27, 2013 Rise Set
Actual Time 6:08 AM SAST 6:06 PM SAST
Civil Twilight 5:45 AM SAST 6:28 PM SAST
Nautical Twilight 5:19 AM SAST 6:54 PM SAST
Astronomical Twilight 4:53 AM SAST 7:21 PM SAST
Moon 6:03 PM SAST (3/27) 5:59 AM SAST (3/27)
Length of Visible Light 12h 42m
Length of Day
11h 57m
Full, 100% of the Moon is Illuminated
Mar 27
Full
Apr 3
Last Quarter
Apr 10
New
Apr 18
First Quarter
Apr 25
Full

Hourly Weather History & Observations

Time (SAST) Temp. Dew Point Humidity Pressure Visibility Wind Dir Wind Speed Gust Speed Precip Events Conditions
12:00 AM 57.2 °F 51.8 °F 82% 30.24 in - NE 6.9 mph - N/A   Unknown
1:00 AM 55.4 °F 51.8 °F 88% 30.21 in - NE 4.6 mph - N/A   Unknown
2:00 AM 57.2 °F 50.0 °F 77% 30.21 in - East 6.9 mph - N/A   Unknown
3:00 AM 55.4 °F 48.2 °F 77% 30.21 in - East 6.9 mph - N/A   Unknown
4:00 AM 55.4 °F 48.2 °F 77% 30.21 in - East 2.3 mph - N/A   Unknown
5:00 AM 53.6 °F 48.2 °F 82% 30.21 in 6.2 mi NE 1.2 mph - N/A   Partly Cloudy
6:00 AM 53.6 °F 48.2 °F 82% 30.24 in 6.2 mi NE 1.2 mph - N/A   Mostly Cloudy
6:49 AM 55.4 °F 48.2 °F 77% 30.24 in 6.2 mi East 2.3 mph - N/A   Partly Cloudy
7:00 AM 55.4 °F 50.0 °F 82% 30.24 in 6.2 mi ENE 1.2 mph - N/A   Partly Cloudy
8:00 AM 59.0 °F 48.2 °F 67% 30.27 in 6.2 mi East 5.8 mph - N/A   Partly Cloudy
9:00 AM 62.6 °F 46.4 °F 55% 30.27 in 6.2 mi East 6.9 mph - N/A   Partly Cloudy
10:00 AM 68.0 °F 46.4 °F 46% 30.27 in 6.2 mi ENE 8.1 mph - N/A   Partly Cloudy
11:00 AM 69.8 °F 46.4 °F 43% 30.27 in 6.2 mi ENE 9.2 mph 20.7 mph N/A   Partly Cloudy
12:00 PM 71.6 °F 46.4 °F 41% 30.24 in 6.2 mi ENE 8.1 mph - N/A   Partly Cloudy
1:00 PM 73.4 °F 46.4 °F 38% 30.21 in 6.2 mi NE 10.4 mph - N/A   Partly Cloudy
2:00 PM 75.2 °F 46.4 °F 36% 30.21 in 6.2 mi ENE 11.5 mph - N/A   Partly Cloudy
3:00 PM 77.0 °F 44.6 °F 32% 30.18 in 6.2 mi ENE 9.2 mph - N/A   Partly Cloudy
4:00 PM 75.2 °F 42.8 °F 31% 30.18 in 6.2 mi NE 8.1 mph - N/A   Partly Cloudy
5:00 PM 75.2 °F 44.6 °F 34% 30.18 in 6.2 mi NE 9.2 mph - N/A   Partly Cloudy
6:00 PM 71.6 °F 46.4 °F 41% 30.18 in 6.2 mi NE 8.1 mph - N/A   Partly Cloudy
7:00 PM 68.0 °F 48.2 °F 49% 30.21 in 6.2 mi East 4.6 mph - N/A   Partly Cloudy
8:00 PM 64.4 °F 48.2 °F 56% 30.21 in - East 4.6 mph - N/A   Clear
9:00 PM 60.8 °F 48.2 °F 63% 30.24 in - ENE 8.1 mph - N/A   Unknown
10:00 PM 59.0 °F 50.0 °F 72% 30.24 in - ENE 6.9 mph - N/A   Unknown
11:00 PM 57.2 °F 50.0 °F 77% 30.24 in - ENE 5.8 mph - N/A   Unknown